Location: Beuvrequen
(50.8014°N, 1.6652°E)
Time: 20:16:38
(UTC+00:00)

Cosmos 1980 Rocket - Pass Details

Date: 16 October 2021
Orbit: 828 x 851 km, 71.0° (Epoch: 05 December)

Event Time Altitude Azimuth Distance (km) Brightness Sun altitude
Rises 18:59:10 0° 211° (SSW) 3,380 5.6 -19.8°
Reaches altitude 10° 19:01:36 10° 212° (SSW) 2,453 4.9 -20.1°
Maximum altitude 19:07:15 81° 300° (WNW) 862 2.2 -21.0°
Drops below altitude 10° 19:12:58 10° 28° (NNE) 2,483 4.5 -21.9°
Sets 19:15:26 0° 30° (NNE) 3,425 5.2 -22.3°
